TimePST,TemperatureF,Dew PointF,Humidity,Sea Level PressureIn,VisibilityMPH,Wind Direction,Wind SpeedMPH,Gust SpeedMPH,PrecipitationIn,Events,Conditions,WindDirDegrees,DateUTC
12:55 AM,37.9,30.9,76,30.15,10.0,SSW,6.9,-,N/A,,Partly Cloudy,210,2014-01-10 08:55:00
1:55 AM,36.0,30.0,79,30.16,10.0,Calm,Calm,-,N/A,,Partly Cloudy,0,2014-01-10 09:55:00
2:55 AM,34.0,28.9,82,30.16,10.0,South,3.5,-,N/A,,Clear,190,2014-01-10 10:55:00
3:55 AM,33.1,28.9,85,30.18,10.0,Calm,Calm,-,N/A,,Clear,0,2014-01-10 11:55:00
4:55 AM,30.0,27.0,88,30.20,10.0,SE,4.6,-,N/A,,Clear,140,2014-01-10 12:55:00
5:55 AM,30.0,27.0,88,30.22,10.0,Calm,Calm,-,N/A,,Clear,0,2014-01-10 13:55:00
6:55 AM,32.0,28.0,85,30.23,10.0,Calm,Calm,-,N/A,,Scattered Clouds,0,2014-01-10 14:55:00
7:55 AM,28.9,27.0,92,30.26,10.0,SSE,4.6,-,N/A,,Mostly Cloudy,160,2014-01-10 15:55:00
8:55 AM,32.0,28.9,88,30.28,10.0,Calm,Calm,-,N/A,,Overcast,0,2014-01-10 16:55:00
9:55 AM,39.0,30.9,73,30.29,10.0,Calm,Calm,-,N/A,,Overcast,0,2014-01-10 17:55:00
10:55 AM,44.1,32.0,63,30.29,10.0,SW,3.5,-,N/A,,Overcast,230,2014-01-10 18:55:00
11:55 AM,50.0,30.9,48,30.25,10.0,Variable,3.5,-,N/A,,Overcast,0,2014-01-10 19:55:00
12:55 PM,52.0,30.9,45,30.21,10.0,ESE,4.6,-,N/A,,Overcast,110,2014-01-10 20:55:00
1:55 PM,55.0,30.9,40,30.19,10.0,Calm,Calm,-,N/A,,Overcast,0,2014-01-10 21:55:00
2:55 PM,55.0,30.9,40,30.19,10.0,NE,4.6,-,N/A,,Overcast,40,2014-01-10 22:55:00
3:55 PM,54.0,30.9,41,30.21,10.0,Calm,Calm,-,N/A,,Overcast,0,2014-01-10 23:55:00
4:55 PM,52.0,32.0,47,30.22,10.0,Calm,Calm,-,N/A,,Overcast,0,2014-01-11 00:55:00
5:55 PM,46.9,30.9,54,30.22,10.0,SSW,4.6,-,N/A,,Overcast,200,2014-01-11 01:55:00
6:55 PM,46.0,30.9,56,30.24,10.0,SSE,3.5,-,N/A,,Mostly Cloudy,150,2014-01-11 02:55:00
7:55 PM,43.0,30.9,62,30.27,10.0,SW,3.5,-,N/A,,Mostly Cloudy,230,2014-01-11 03:55:00
8:55 PM,42.1,30.0,62,30.26,10.0,Calm,Calm,-,N/A,,Mostly Cloudy,0,2014-01-11 04:55:00
9:55 PM,39.0,30.0,70,30.25,10.0,Calm,Calm,-,N/A,,Mostly Cloudy,0,2014-01-11 05:55:00
10:55 PM,37.0,28.9,73,30.23,10.0,Calm,Calm,-,N/A,,Mostly Cloudy,0,2014-01-11 06:55:00
11:55 PM,35.1,28.9,78,30.21,10.0,Calm,Calm,-,N/A,,Scattered Clouds,0,2014-01-11 07:55:00